Regional Weather Roundup
Issued by NWS

Home | Current Version | Previous Version | Graphics & Text | Print | Product List | Glossary On
Versions: 1 2 3 4 5 6 7 8 9 10 11 12 13 14 15 16 17 18 19 20 21 22 23 24 25 26 27 28 29 30 31 32 33 34 35 36 37 38 39 40 41 42 43 44 45 46 47 48 49 50
000
ASUS43 KOAX 150302
RWRNE

WEATHER ROUNDUP FOR NEBRASKA
NATIONAL WEATHER SERVICE OMAHA NE
1000 PM CDT SUN SEP 14 2014

NOTES: SATELLITE DATA IS BEING USED TO AUGMENT CLOUD COVER ABOVE
       12000 FEET.
       "FAIR" INDICATES FEW OR NO CLOUDS BELOW 12,000 FEET WITH NO
       SIGNIFICANT WEATHER AND/OR OBSTRUCTIONS TO VISIBILITY.

  * THESE STATIONS DO NOT REPORT WEATHER SUCH AS RAIN...SNOW OR FOG.

NEZ001>004-019>022-054>056-150400-
NEBRASKA PANHANDLE

CITY           SKY/WX    TMP DP  RH WIND       PRES   REMARKS
SCOTTSBLUFF    PTCLDY    55  46  71 NE21      30.09R
ALLIANCE       MOCLDY    55  46  71 NE15      30.10R
KIMBALL        PTCLDY    58  51  78 N8        30.08R
SIDNEY         MOCLDY    61  52  72 NE14      30.06R
$$

NEZ057>060-069>072-079>082-150400-
SOUTHWEST NEBRASKA

CITY           SKY/WX    TMP DP  RH WIND       PRES   REMARKS
NORTH PLATTE   PTCLDY    59  55  87 E12       30.02F
IMPERIAL       MOCLDY    64  57  78 NE10      29.99R
LEXINGTON      CLOUDY    58  55  87 E9        30.04F
MCCOOK         MOCLDY    63  58  83 E10       29.98F
OGALLALA       PTCLDY    64  58  82 E9        30.02R
$$

NEZ005>010-023>029-035>040-094-150400-
NORTH CENTRAL NEBRASKA

CITY           SKY/WX    TMP DP  RH WIND       PRES   REMARKS
VALENTINE      CLOUDY    52  42  69 NE12      30.12R
AINSWORTH      MOCLDY    53  47  81 NE6       30.09F
BROKEN BOW     CLOUDY    63  55  75 SE9       30.06R
O`NEILL        CLOUDY    59  54  82 NE7       30.10S
ORD            CLOUDY    60  54  80 SE5       30.06S
THEDFORD       MOCLDY    59  53  80 NE7       30.07S
$$

NEZ041-046>049-061>064-073>077-083>087-150400-
SOUTH CENTRAL NEBRASKA

CITY           SKY/WX    TMP DP  RH WIND       PRES   REMARKS
GRAND ISLAND   CLOUDY    63  53  70 E6        30.07R
AURORA         CLOUDY    62  54  76 NE5       30.07R
HASTINGS       CLOUDY    61  52  72 E8        30.04R
HEBRON         CLEAR     61  53  74 E6        30.02F
HOLDREGE       CLOUDY    58  53  85 NE8       30.05R
KEARNEY *      CLOUDY    57  54  88 NE7       30.07R
YORK           CLOUDY    63  55  77 E6        30.07R
$$

NEZ011>018-030>034-042>045-150400-
NORTHEAST NEBRASKA

CITY           SKY/WX    TMP DP  RH WIND       PRES   REMARKS
NORFOLK        CLOUDY    61  54  77 SE10      30.08R
ALBION         CLOUDY    61  53  74 SE7       30.07F
BLAIR          CLOUDY    62  54  73 E7        30.08S
COLUMBUS *     CLOUDY    63  54  72 E5        30.09R
FREMONT        CLOUDY    65  52  62 E6        30.09R
TEKAMAH        CLOUDY    62  54  74 NE3       30.09S
WAYNE          CLOUDY    59  53  78 SE9       30.09S
$$

NEZ050>053-065>068-078-088>093-150400-
SOUTHEAST NEBRASKA

CITY           SKY/WX    TMP DP  RH WIND       PRES   REMARKS
LINCOLN        CLOUDY    67  54  63 SE9       30.08S
OMAHA EPPLEY   CLOUDY    66  51  58 E9        30.09S
BEATRICE       CLOUDY    64  55  71 E7        30.05S
FALLS CITY     MOCLDY    65  57  75 SE8       30.06F
NEBRASKA CITY  CLOUDY    65  49  56 SE5       30.08S
PLATTSMOUTH    CLOUDY    63  53  71 E3        30.09S
$$

NEZ044-045-051>053-067-150400-
OMAHA AREA

CITY           SKY/WX    TMP DP  RH WIND       PRES   REMARKS
OMAHA EPPLEY   CLOUDY    66  51  58 E9        30.09S
BLAIR          CLOUDY    62  54  73 E7        30.08S
FREMONT        CLOUDY    65  52  62 E6        30.09R
OFFUTT AFB     MOCLDY    63  58  84 E5        30.09R
PLATTSMOUTH    CLOUDY    63  53  71 E3        30.09S
WAHOO          CLOUDY    62  55  76 E3        30.08R
$$


USA.gov is the U.S. government's official web portal to all federal, state and local government web resources and services.